SCP
0 -0 -0 0 0 0 0 0 0 0 0 0 0 0 0 0 -0 0 -0 -0 -0 -0 0 -0 -0 0 0 0 0 0 0 0 0 0 0 -0 -0 -0 -0 -0 -0 0 0
0 0 0 0 0 0 0 0 0 0 0 0 -0 0 0 -0 -0 -0 -0 -0 0 0 -0 -0 -0 0 0 0 0 0 0 0 0 0 0 0 -0 0 0 -0 -0 0 0
0 0 0 -0 -0 -0 -0 0 0 0 0 0 0 0 0 0 -0 -0 -0 0 0 0 0 0 0 0 0 0 0 0 0 0 0 0 0 0 0 0 0 0 0 0 0
0 0 0 -0 -0 -0 -0 -0 0 0 0 0 0 -0 0 0 -0 -0 0 0 0 0 0 0 0 0 0 0 0 0 0 0 0 0 0 0 0 0 0 0 0 0 0
0 0 -0 -0 -0 -0 -0 -0 0 0 0 0 0 0 0 0 0 0 0 0 0 0 0 0 0 0 0 0 0 0 0 0 0 0 0 0 0 0 0 0 0 0 0
0 0 -0 -0 -0 -0 -0 0 0 0 0 -0 -0 -0 0 0 0 0 0 0 0 0 0 0 0 0 0 0 0 0 0 0 0 0 0 0 0 0 0 0 0 0 0
0 0 -0 -0 -0 -0 -0 0 0 0 0 0 0 0 0 0 0 0 0 0 0 0 0 0 0 0 0 0 0 0 0 0 0 0 0 0 0 0 0 0 0 0 0
0 0 0 0 0 0 0 0 0 0 0 0 0 0 0 0 0 0 0 0 0 0 0 0 0 0 0 0 0 0 0 0 0 0 0 0 0 0 0 0 0 0 0
0 0 0 0 0 0 0 0 0 0 0 0 0 0 0 0 0 0 0 0 0 0 0 0 0 0 0 0 0 0 0 0 0 0 0 0 0 0 0 0 0 0 0
0 0 0 0 -0 0 0 0 0 0 0 0 0 0 0 0 0 0 0 0 0 0 0 0 0 0 0 0 0 0 0 0 0 0 0 0 0 0 0 0 0 0 0
-0 -0 -0 -0 -0 -0 0 0 0 0 0 0 0 0 0 0 0 0 0 0 0 0 0 0 0 0 0 0 0 0 0 0 0 0 0 0 0 0 0 0 0 0 0
-0 -0 -0 -0 -0 -0 0 0 0 0 0 0 0 0 0 0 0 0 0 0 0 0 0 0 0 0 0 0 0 0 0 0 0 0 0 0 0 0 0 0 0 0 0
-0 -0 -0 -0 0 0 0 0 0 0 0 0 0 0 0 0 0 0 0 0 0 0 0 0 0 0 0 0 0 0 0 0 0 0 0 0 0 0 0 0 0 0 0
0 -0 -0 -0 0 0 0 0 0 0 0 0 0 0 0 0 0 0 0 0 0 0 0 0 0 0 0 0 0 0 0 0 0 0 0 0 0 0 0 0 0 0 0
0 0 0 0 0 0 0 0 0 0 0 0 0 0 0 0 0 0 0 0 0 0 0 0 0 0 0 0 0 0 0 0 0 0 0 0 0 0 0 0 0 0 0
0 0 0 0 0 0 0 0 0 0 0 0 0 0 0 0 0 0 0 0 0 0 0 0 0 0 0 0 0 0 0 0 0 0 0 0 0 0 0 0 0 0 0
0 0 0 0 0 0 0 0 0 0 0 0 0 0 0 0 0 0 0 0 0 0 0 0 0 0 0 0 0 0 0 0 0 0 0 0 0 0 0 0 0 0 0
0 0 0 0 0 0 0 0 0 0 0 0 0 0 0 0 0 0 0 0 0 0 0 0 0 0 0 0 0 0 0 0 0 0 0 0 0 0 0 0 0 0 0
0 0 0 0 0 0 0 0 0 0 0 0 0 0 0 0 0 0 0 0 0 0 0 0 0 0 0 0 0 0 0 0 0 0 0 0 0 0 0 0 0 0 0
0 0 0 0 0 0 0 0 0 0 0 0 0 0 0 0 0 0 0 0 0 0 0 0 0 0 0 0 0 0 0 0 0 0 0 0 0 0 0 0 0 0 0
0 0 0 0 0 0 0 0 0 0 0 0 0 0 0 0 0 0 0 0 0 0 0 0 0 0 0 0 0 0 0 0 0 0 0 0 0 0 0 0 0 0 0
0 0 0 0 0 0 0 0 0 0 0 0 0 0 0 0 0 0 0 0 0 0 0 0 0 0 0 0 0 0 0 0 0 0 0 0 0 0 0 0 0 0 0
0 0 0 0 0 0 0 0 0 0 0 0 0 0 0 0 0 0 0 0 0 0 0 0 0 0 0 0 0 0 0 0 0 0 0 0 0 0 0 0 0 0 0
0 0 0 0 0 0 0 0 0 0 0 0 0 0 0 0 0 0 0 0 0 0 0 0 0 0 0 0 0 0 0 0 0 0 0 0 0 0 0 0 0 0 0
0 0 0 0 0 0 0 0 0 0 0 0 0 0 0 0 0 0 0 0 0 0 0 0 0 0 0 0 0 0 0 0 0 0 0 0 0 0 0 0 0 0 0
0 0 0 0 0 0 0 0 0 0 0 0 0 0 0 0 0 0 0 0 0 0 0 0 0 0 0 0 0 0 0 0 0 0 0 0 0 0 0 0 0 0 0
Wind_Speed_500mb
16 8 2 3 6 7 10 11 14 15 12 16 13 17 18 20 22 21 14 17 21 26 25 21 22 23 20 19 17 14 17 13 18 20 23 20 21 17 21 24 25 26 23
21 12 2 3 7 9 10 14 14 13 18 17 17 15 18 21 16 13 11 18 30 25 18 23 19 20 18 13 12 11 11 10 12 18 18 20 23 21 17 13 11 18 13
15 10 4 6 9 10 11 13 14 16 16 12 18 18 16 13 6 15 10 15 21 8 9 14 15 15 10 8 8 9 7 8 14 18 22 25 23 22 26 17 14 11 9
12 11 6 6 7 8 9 12 14 15 14 14 15 12 13 15 15 6 6 15 15 11 13 10 11 12 7 11 11 10 11 9 15 23 29 26 17 21 23 23 20 16 18
14 11 6 5 6 6 8 11 14 15 16 15 13 12 16 10 12 12 14 17 11 9 15 13 6 5 6 6 10 14 15 18 22 29 23 15 13 16 25 30 24 15 21
15 12 6 4 6 6 9 12 13 15 16 16 15 13 14 17 8 13 17 10 5 13 13 6 6 3 8 9 9 11 16 22 28 27 18 20 27 30 28 22 13 12 16
17 11 5 5 7 8 9 11 13 14 16 17 18 17 11 6 10 16 15 12 17 16 12 12 10 10 7 8 9 15 22 26 26 21 21 25 25 25 22 14 21 22 23
14 9 4 4 6 8 10 12 13 15 16 18 19 19 16 12 11 15 12 11 19 22 16 12 10 8 7 9 12 15 20 26 26 22 23 24 23 19 20 24 29 32 34
11 7 4 4 7 8 10 12 13 15 16 18 20 21 21 20 16 12 14 11 16 23 16 8 10 13 12 13 20 20 22 25 26 22 22 20 21 17 22 30 31 32 26
11 10 7 5 8 9 11 12 13 14 17 19 21 22 22 22 22 19 15 14 11 15 18 14 19 20 21 18 21 25 28 27 28 29 26 24 22 22 25 32 32 33 28
16 15 9 6 8 9 10 12 13 16 20 22 24 25 27 28 27 25 23 19 19 25 23 21 19 20 21 24 27 31 33 33 32 32 30 28 25 21 26 28 35 36 33
19 16 11 7 9 11 12 13 14 18 21 22 24 26 27 28 29 28 27 25 24 24 27 23 24 25 27 29 30 34 32 33 32 31 31 31 25 20 25 28 37 38 39
16 16 10 9 9 10 12 14 15 16 20 22 22 24 25 27 30 31 31 28 26 26 27 26 26 27 32 34 35 31 28 29 30 31 33 33 28 24 24 27 33 41 40
19 15 11 10 9 11 13 14 12 14 15 19 22 22 25 28 30 31 32 33 30 27 25 28 28 27 32 36 36 33 31 30 32 36 35 34 35 35 35 39 30 33 35
18 15 13 9 7 7 7 7 8 11 12 13 18 26 28 30 31 35 35 35 34 34 32 31 30 31 35 38 40 37 37 37 39 41 41 39 38 39 40 40 43 45 36
17 13 10 10 8 4 2 1 4 8 14 16 18 24 26 30 32 34 38 39 35 34 32 30 29 33 36 36 36 38 41 44 47 50 51 48 47 46 45 46 43 42 42
21 14 10 5 7 10 10 10 11 14 17 21 22 24 28 31 34 35 38 37 35 33 33 34 34 35 36 37 38 35 39 44 47 50 51 53 52 53 53 51 50 47 45
25 19 15 12 9 11 13 15 17 19 19 25 27 28 30 34 34 33 36 39 35 33 35 35 37 40 40 43 45 45 46 49 50 51 53 52 52 55 56 57 57 55 52
21 22 21 18 16 14 16 19 22 25 23 24 25 29 33 33 34 37 39 36 33 34 35 37 40 46 50 50 53 57 56 56 55 57 56 53 44 46 51 53 61 62 59
23 23 25 24 21 19 19 21 20 19 21 21 22 28 32 30 33 31 33 33 33 35 34 38 44 46 50 55 63 68 69 68 67 63 59 43 51 55 47 49 53 58 62
28 25 26 22 18 20 21 23 20 20 19 19 22 23 24 26 27 29 30 31 32 35 36 37 43 48 54 54 63 73 78 68 68 59 49 54 72 59 60 54 54 54 57
32 29 24 21 20 21 18 17 21 19 16 15 14 17 25 23 25 29 31 32 33 37 36 35 39 49 55 54 60 68 50 77 43 71 81 67 66 70 67 68 65 62 58
36 31 28 27 27 25 22 21 23 20 20 22 16 20 22 24 26 28 30 32 34 37 39 41 44 47 53 58 51 47 39 28 92 68 69 71 68 78 82 74 72 66 66
35 32 29 28 25 21 21 21 21 19 15 20 19 19 17 19 22 25 28 32 34 38 41 44 46 49 53 62 62 57 56 66 64 82 75 72 80 73 72 75 82 82 73
30 28 27 24 20 16 13 13 11 10 9 10 10 13 16 20 25 28 32 36 39 42 44 48 51 53 55 60 61 63 63 67 66 63 100 107 90 79 77 79 80 77 77
27 25 23 17 13 9 7 6 6 4 3 6 10 14 17 20 24 28 32 37 41 45 48 51 54 56 57 60 63 66 64 58 63 65 73 94 94 100 84 79 88 85 82
Wind_Direction_500mb
176 202 245 33 41 36 42 47 62 75 74 74 75 88 63 59 52 54 49 24 48 53 49 54 81 59 50 68 63 64 55 36 25 29 28 26 26 41 51 45 51 49 54
164 203 189 48 41 45 41 43 58 70 74 63 51 77 97 77 74 37 29 31 59 63 38 85 76 52 66 66 54 77 38 44 23 2 6 13 11 1 359 26 38 39 29
175 161 110 53 37 38 47 51 58 70 72 76 72 46 105 73 75 75 43 60 75 61 55 81 82 68 48 16 31 71 31 24 2 349 339 337 348 349 338 344 346 329 346
169 138 107 70 49 54 59 61 59 58 62 71 82 65 85 78 48 173 13 55 55 33 82 69 85 67 41 19 24 28 6 353 334 334 328 326 359 359 348 348 335 320 316
159 141 113 63 49 62 71 65 59 52 50 60 73 64 87 65 49 34 54 69 60 18 96 79 110 79 12 13 22 16 353 345 339 342 350 357 4 348 333 338 347 323 322
163 152 120 63 49 53 67 71 67 58 55 54 57 74 107 72 63 34 66 46 26 28 64 37 36 328 351 13 5 355 345 340 335 348 358 355 350 356 358 26 7 329 316
178 161 116 55 49 69 76 74 67 59 52 45 43 44 56 46 42 44 70 11 5 16 17 37 47 36 31 354 344 334 337 324 331 341 342 345 355 14 11 9 342 330 329
177 167 133 63 62 80 83 75 67 59 51 45 40 36 34 25 22 27 66 26 3 359 3 33 32 19 2 347 334 328 329 334 335 333 332 336 351 358 341 321 326 328 337
175 184 152 83 70 83 85 78 66 59 53 44 37 31 27 24 18 8 12 41 3 8 23 26 353 340 357 332 333 334 332 337 341 330 325 325 336 343 322 315 324 336 343
184 173 159 100 78 89 91 84 71 60 51 46 42 36 31 25 21 14 3 20 2 348 0 356 340 340 336 335 325 322 325 325 326 327 320 314 322 332 323 321 318 320 321
189 177 160 116 83 95 97 86 74 62 53 45 40 37 32 28 24 19 11 355 340 339 338 341 340 332 329 326 322 318 315 317 320 322 322 313 304 324 322 317 317 320 327
197 180 165 132 93 93 93 85 73 61 54 47 42 41 41 38 33 25 18 6 352 342 342 341 346 346 338 337 330 328 323 321 322 323 324 328 292 292 332 314 315 317 319
187 183 161 139 112 104 94 83 73 64 54 49 46 42 37 33 28 22 17 10 358 350 347 343 336 336 333 335 336 339 329 326 329 332 331 327 320 287 293 326 314 312 314
189 179 173 159 132 113 100 88 74 57 48 42 34 26 20 16 12 8 6 5 0 352 345 347 340 332 325 327 330 336 339 334 327 328 329 332 327 309 290 285 297 314 297
198 185 181 170 152 139 118 90 58 38 24 15 14 9 3 3 359 354 353 352 353 352 346 342 336 337 337 332 332 329 329 325 323 322 323 322 320 319 318 310 289 283 298
191 165 196 214 222 218 222 322 333 348 356 342 348 345 341 342 343 344 343 342 341 342 343 339 333 332 336 334 333 323 322 320 318 317 315 312 309 307 306 308 309 303 277
197 204 219 223 259 260 274 283 306 318 329 321 321 321 326 329 327 330 331 328 327 331 336 335 333 332 335 339 337 332 325 324 322 318 313 308 304 300 300 294 295 297 298
222 227 235 242 267 272 269 279 286 297 311 308 315 316 318 318 317 317 318 319 323 326 326 328 331 330 331 333 328 324 321 319 317 315 318 319 311 299 295 290 289 286 286
245 231 243 249 251 252 262 275 290 292 305 310 314 318 315 318 314 314 314 317 319 321 323 327 327 323 323 323 319 314 315 309 308 308 309 308 308 315 304 294 287 282 280
232 225 237 243 244 253 274 282 285 299 309 311 323 319 313 314 316 317 318 324 327 331 338 330 325 323 319 320 316 312 311 309 307 307 307 307 312 313 306 308 304 293 280
226 236 234 233 252 262 273 278 282 293 298 308 309 312 320 325 335 338 338 334 335 331 330 327 320 317 315 319 318 318 315 320 316 321 320 305 312 311 306 306 307 298 292
224 227 225 245 251 259 261 261 274 291 295 302 307 310 310 316 316 323 324 327 327 322 322 319 314 314 314 321 320 321 320 314 318 308 308 310 305 309 306 305 302 297 292
215 222 227 236 244 256 253 252 262 272 279 285 300 315 319 325 326 325 329 330 328 323 323 320 318 316 313 315 317 309 318 302 316 318 305 305 308 304 304 305 302 297 296
214 217 227 236 247 248 246 250 260 270 276 287 319 327 333 335 332 330 330 329 328 325 324 321 319 315 311 308 308 306 299 302 305 312 308 301 301 299 297 297 295 295 293
204 214 229 232 228 232 246 254 263 275 280 299 317 327 334 330 329 333 334 335 333 330 328 324 322 318 314 309 307 303 299 298 294 285 293 303 300 298 295 296 295 295 293
188 181 180 180 188 200 218 232 233 239 272 306 314 322 334 341 344 342 343 341 339 336 332 329 324 321 318 312 309 306 300 292 291 291 287 292 296 301 300 299 299 296 293
Wind_Speed_850mb
16 8 2 3 6 7 10 11 14 15 12 16 13 17 18 20 22 21 14 17 21 26 25 21 22 23 20 19 17 14 17 13 18 20 23 20 21 17 21 24 25 26 23
21 12 2 3 7 9 10 14 14 13 18 17 17 15 18 21 16 13 11 18 30 25 18 23 19 20 18 13 12 11 11 10 12 18 18 20 23 21 17 13 11 18 13
15 10 4 6 9 10 11 13 14 16 16 12 18 18 16 13 6 15 10 15 21 8 9 14 15 15 10 8 8 9 7 8 14 18 22 25 23 22 26 17 14 11 9
12 11 6 6 7 8 9 12 14 15 14 14 15 12 13 15 15 6 6 15 15 11 13 10 11 12 7 11 11 10 11 9 15 23 29 26 17 21 23 23 20 16 18
14 11 6 5 6 6 8 11 14 15 16 15 13 12 16 10 12 12 14 17 11 9 15 13 6 5 6 6 10 14 15 18 22 29 23 15 13 16 25 30 24 15 21
15 12 6 4 6 6 9 12 13 15 16 16 15 13 14 17 8 13 17 10 5 13 13 6 6 3 8 9 9 11 16 22 28 27 18 20 27 30 28 22 13 12 16
17 11 5 5 7 8 9 11 13 14 16 17 18 17 11 6 10 16 15 12 17 16 12 12 10 10 7 8 9 15 22 26 26 21 21 25 25 25 22 14 21 22 23
14 9 4 4 6 8 10 12 13 15 16 18 19 19 16 12 11 15 12 11 19 22 16 12 10 8 7 9 12 15 20 26 26 22 23 24 23 19 20 24 29 32 34
11 7 4 4 7 8 10 12 13 15 16 18 20 21 21 20 16 12 14 11 16 23 16 8 10 13 12 13 20 20 22 25 26 22 22 20 21 17 22 30 31 32 26
11 10 7 5 8 9 11 12 13 14 17 19 21 22 22 22 22 19 15 14 11 15 18 14 19 20 21 18 21 25 28 27 28 29 26 24 22 22 25 32 32 33 28
16 15 9 6 8 9 10 12 13 16 20 22 24 25 27 28 27 25 23 19 19 25 23 21 19 20 21 24 27 31 33 33 32 32 30 28 25 21 26 28 35 36 33
19 16 11 7 9 11 12 13 14 18 21 22 24 26 27 28 29 28 27 25 24 24 27 23 24 25 27 29 30 34 32 33 32 31 31 31 25 20 25 28 37 38 39
16 16 10 9 9 10 12 14 15 16 20 22 22 24 25 27 30 31 31 28 26 26 27 26 26 27 32 34 35 31 28 29 30 31 33 33 28 24 24 27 33 41 40
19 15 11 10 9 11 13 14 12 14 15 19 22 22 25 28 30 31 32 33 30 27 25 28 28 27 32 36 36 33 31 30 32 36 35 34 35 35 35 39 30 33 35
18 15 13 9 7 7 7 7 8 11 12 13 18 26 28 30 31 35 35 35 34 34 32 31 30 31 35 38 40 37 37 37 39 41 41 39 38 39 40 40 43 45 36
17 13 10 10 8 4 2 1 4 8 14 16 18 24 26 30 32 34 38 39 35 34 32 30 29 33 36 36 36 38 41 44 47 50 51 48 47 46 45 46 43 42 42
21 14 10 5 7 10 10 10 11 14 17 21 22 24 28 31 34 35 38 37 35 33 33 34 34 35 36 37 38 35 39 44 47 50 51 53 52 53 53 51 50 47 45
25 19 15 12 9 11 13 15 17 19 19 25 27 28 30 34 34 33 36 39 35 33 35 35 37 40 40 43 45 45 46 49 50 51 53 52 52 55 56 57 57 55 52
21 22 21 18 16 14 16 19 22 25 23 24 25 29 33 33 34 37 39 36 33 34 35 37 40 46 50 50 53 57 56 56 55 57 56 53 44 46 51 53 61 62 59
23 23 25 24 21 19 19 21 20 19 21 21 22 28 32 30 33 31 33 33 33 35 34 38 44 46 50 55 63 68 69 68 67 63 59 43 51 55 47 49 53 58 62
28 25 26 22 18 20 21 23 20 20 19 19 22 23 24 26 27 29 30 31 32 35 36 37 43 48 54 54 63 73 78 68 68 59 49 54 72 59 60 54 54 54 57
32 29 24 21 20 21 18 17 21 19 16 15 14 17 25 23 25 29 31 32 33 37 36 35 39 49 55 54 60 68 50 77 43 71 81 67 66 70 67 68 65 62 58
36 31 28 27 27 25 22 21 23 20 20 22 16 20 22 24 26 28 30 32 34 37 39 41 44 47 53 58 51 47 39 28 92 68 69 71 68 78 82 74 72 66 66
35 32 29 28 25 21 21 21 21 19 15 20 19 19 17 19 22 25 28 32 34 38 41 44 46 49 53 62 62 57 56 66 64 82 75 72 80 73 72 75 82 82 73
30 28 27 24 20 16 13 13 11 10 9 10 10 13 16 20 25 28 32 36 39 42 44 48 51 53 55 60 61 63 63 67 66 63 100 107 90 79 77 79 80 77 77
27 25 23 17 13 9 7 6 6 4 3 6 10 14 17 20 24 28 32 37 41 45 48 51 54 56 57 60 63 66 64 58 63 65 73 94 94 100 84 79 88 85 82
Wind_Direction_850mb
176 202 245 33 41 36 42 47 62 75 74 74 75 88 63 59 52 54 49 24 48 53 49 54 81 59 50 68 63 64 55 36 25 29 28 26 26 41 51 45 51 49 54
164 203 189 48 41 45 41 43 58 70 74 63 51 77 97 77 74 37 29 31 59 63 38 85 76 52 66 66 54 77 38 44 23 2 6 13 11 1 359 26 38 39 29
175 161 110 53 37 38 47 51 58 70 72 76 72 46 105 73 75 75 43 60 75 61 55 81 82 68 48 16 31 71 31 24 2 349 339 337 348 349 338 344 346 329 346
169 138 107 70 49 54 59 61 59 58 62 71 82 65 85 78 48 173 13 55 55 33 82 69 85 67 41 19 24 28 6 353 334 334 328 326 359 359 348 348 335 320 316
159 141 113 63 49 62 71 65 59 52 50 60 73 64 87 65 49 34 54 69 60 18 96 79 110 79 12 13 22 16 353 345 339 342 350 357 4 348 333 338 347 323 322
163 152 120 63 49 53 67 71 67 58 55 54 57 74 107 72 63 34 66 46 26 28 64 37 36 328 351 13 5 355 345 340 335 348 358 355 350 356 358 26 7 329 316
178 161 116 55 49 69 76 74 67 59 52 45 43 44 56 46 42 44 70 11 5 16 17 37 47 36 31 354 344 334 337 324 331 341 342 345 355 14 11 9 342 330 329
177 167 133 63 62 80 83 75 67 59 51 45 40 36 34 25 22 27 66 26 3 359 3 33 32 19 2 347 334 328 329 334 335 333 332 336 351 358 341 321 326 328 337
175 184 152 83 70 83 85 78 66 59 53 44 37 31 27 24 18 8 12 41 3 8 23 26 353 340 357 332 333 334 332 337 341 330 325 325 336 343 322 315 324 336 343
184 173 159 100 78 89 91 84 71 60 51 46 42 36 31 25 21 14 3 20 2 348 0 356 340 340 336 335 325 322 325 325 326 327 320 314 322 332 323 321 318 320 321
189 177 160 116 83 95 97 86 74 62 53 45 40 37 32 28 24 19 11 355 340 339 338 341 340 332 329 326 322 318 315 317 320 322 322 313 304 324 322 317 317 320 327
197 180 165 132 93 93 93 85 73 61 54 47 42 41 41 38 33 25 18 6 352 342 342 341 346 346 338 337 330 328 323 321 322 323 324 328 292 292 332 314 315 317 319
187 183 161 139 112 104 94 83 73 64 54 49 46 42 37 33 28 22 17 10 358 350 347 343 336 336 333 335 336 339 329 326 329 332 331 327 320 287 293 326 314 312 314
189 179 173 159 132 113 100 88 74 57 48 42 34 26 20 16 12 8 6 5 0 352 345 347 340 332 325 327 330 336 339 334 327 328 329 332 327 309 290 285 297 314 297
198 185 181 170 152 139 118 90 58 38 24 15 14 9 3 3 359 354 353 352 353 352 346 342 336 337 337 332 332 329 329 325 323 322 323 322 320 319 318 310 289 283 298
191 165 196 214 222 218 222 322 333 348 356 342 348 345 341 342 343 344 343 342 341 342 343 339 333 332 336 334 333 323 322 320 318 317 315 312 309 307 306 308 309 303 277
197 204 219 223 259 260 274 283 306 318 329 321 321 321 326 329 327 330 331 328 327 331 336 335 333 332 335 339 337 332 325 324 322 318 313 308 304 300 300 294 295 297 298
222 227 235 242 267 272 269 279 286 297 311 308 315 316 318 318 317 317 318 319 323 326 326 328 331 330 331 333 328 324 321 319 317 315 318 319 311 299 295 290 289 286 286
245 231 243 249 251 252 262 275 290 292 305 310 314 318 315 318 314 314 314 317 319 321 323 327 327 323 323 323 319 314 315 309 308 308 309 308 308 315 304 294 287 282 280
232 225 237 243 244 253 274 282 285 299 309 311 323 319 313 314 316 317 318 324 327 331 338 330 325 323 319 320 316 312 311 309 307 307 307 307 312 313 306 308 304 293 280
226 236 234 233 252 262 273 278 282 293 298 308 309 312 320 325 335 338 338 334 335 331 330 327 320 317 315 319 318 318 315 320 316 321 320 305 312 311 306 306 307 298 292
224 227 225 245 251 259 261 261 274 291 295 302 307 310 310 316 316 323 324 327 327 322 322 319 314 314 314 321 320 321 320 314 318 308 308 310 305 309 306 305 302 297 292
215 222 227 236 244 256 253 252 262 272 279 285 300 315 319 325 326 325 329 330 328 323 323 320 318 316 313 315 317 309 318 302 316 318 305 305 308 304 304 305 302 297 296
214 217 227 236 247 248 246 250 260 270 276 287 319 327 333 335 332 330 330 329 328 325 324 321 319 315 311 308 308 306 299 302 305 312 308 301 301 299 297 297 295 295 293
204 214 229 232 228 232 246 254 263 275 280 299 317 327 334 330 329 333 334 335 333 330 328 324 322 318 314 309 307 303 299 298 294 285 293 303 300 298 295 296 295 295 293
188 181 180 180 188 200 218 232 233 239 272 306 314 322 334 341 344 342 343 341 339 336 332 329 324 321 318 312 309 306 300 292 291 291 287 292 296 301 300 299 299 296 293